Zurück zum Katalog

DELTA 1 DEB

AktivLEO
NORAD 10208·DEBRIS·🇺🇸 United States

Gestartet Jul 14, 1977 von Cape Canaveral Space Force Station

Loading…

Nächste Überflüge (nächste 24 Stunden)

TLE

AktuellSource: Space-Track

Epoche: Sep 14, 2026, 05:04 UTC

1 10208U 77065AM  26257.21172602  .00004204  00000-0  47521-3 0  9991
2 10208  28.9321 218.5077 0311773 104.7936 258.7402 14.55039416458654

Verfolge DELTA 1 DEB in Echtzeit mit AllMySat

Download on the App Store